Time,TemperatureF,DewpointF,PressureIn,WindDirection,WindDirectionDegrees,WindSpeedMPH,WindSpeedGustMPH,Humidity,HourlyPrecipIn,Conditions,Clouds,dailyrainin,SolarRadiationWatts/m^2,SoftwareType,DateUTC
2013-02-14 00:02:00,25.0,22.0,-100.00,SSE,148,0.0,0.0,88,0.00,,,0.02,0.000000,,2013-02-14 05:02:00,
2013-02-14 00:11:00,25.0,22.0,-100.00,SSE,148,0.0,0.0,88,0.00,,,0.02,0.000000,,2013-02-14 05:11:00,
2013-02-14 00:22:00,25.0,22.0,-100.00,SSE,148,0.0,0.0,88,0.00,,,0.02,0.000000,,2013-02-14 05:22:00,
2013-02-14 00:52:00,25.0,22.0,-100.00,SSE,156,0.0,0.0,88,0.00,,,0.02,0.000000,,2013-02-14 05:52:00,
2013-02-14 01:02:00,25.0,22.0,-100.00,SSE,156,0.0,0.0,88,0.00,,,0.02,0.000000,,2013-02-14 06:02:00,
2013-02-14 01:11:00,25.0,22.0,-100.00,SSE,156,0.0,0.0,88,0.00,,,0.02,0.000000,,2013-02-14 06:11:00,
2013-02-14 01:21:00,25.0,22.0,-100.00,SSE,156,0.0,0.0,88,0.00,,,0.02,0.000000,,2013-02-14 06:21:00,
2013-02-14 01:52:00,25.0,22.0,-100.00,SSE,150,0.0,0.0,89,0.00,,,0.02,0.000000,,2013-02-14 06:52:00,
2013-02-14 02:01:00,25.0,22.0,-100.00,SSE,150,0.0,0.0,89,0.00,,,0.02,0.000000,,2013-02-14 07:01:00,
2013-02-14 02:11:00,25.0,22.0,-100.00,SSE,150,0.0,0.0,89,0.00,,,0.02,0.000000,,2013-02-14 07:11:00,
2013-02-14 02:21:00,25.0,22.0,-100.00,SSE,150,0.0,0.0,89,0.00,,,0.02,0.000000,,2013-02-14 07:21:00,
2013-02-14 02:52:00,24.0,22.0,-100.00,South,183,0.0,0.0,90,0.00,,,0.02,0.000000,,2013-02-14 07:52:00,
2013-02-14 03:01:00,24.0,22.0,-100.00,South,183,0.0,0.0,90,0.00,,,0.02,0.000000,,2013-02-14 08:01:00,
2013-02-14 03:11:00,24.0,22.0,-100.00,South,183,0.0,0.0,90,0.00,,,0.02,0.000000,,2013-02-14 08:11:00,
2013-02-14 03:22:00,24.0,22.0,-100.00,South,183,0.0,0.0,90,0.00,,,0.02,0.000000,,2013-02-14 08:22:00,
2013-02-14 03:52:00,24.0,21.0,-100.00,South,176,0.0,0.0,89,0.00,,,0.02,0.000000,,2013-02-14 08:52:00,
2013-02-14 04:02:00,24.0,21.0,-100.00,South,176,0.0,0.0,89,0.00,,,0.02,0.000000,,2013-02-14 09:02:00,
2013-02-14 04:11:00,24.0,21.0,-100.00,South,176,0.0,0.0,89,0.00,,,0.02,0.000000,,2013-02-14 09:11:00,
2013-02-14 04:21:00,24.0,21.0,-100.00,South,176,0.0,0.0,89,0.00,,,0.02,0.000000,,2013-02-14 09:21:00,
2013-02-14 04:52:00,24.0,21.0,-100.00,SE,133,0.0,0.0,89,0.00,,,0.02,0.000000,,2013-02-14 09:52:00,
2013-02-14 05:02:00,24.0,21.0,-100.00,SE,133,0.0,0.0,89,0.00,,,0.02,0.000000,,2013-02-14 10:02:00,
2013-02-14 05:11:00,24.0,21.0,-100.00,SE,133,0.0,0.0,89,0.00,,,0.02,0.000000,,2013-02-14 10:11:00,
2013-02-14 05:21:00,24.0,21.0,-100.00,SE,133,0.0,0.0,89,0.00,,,0.02,0.000000,,2013-02-14 10:21:00,
2013-02-14 05:52:00,24.0,21.0,-100.00,SSE,147,0.0,0.0,88,0.00,,,0.02,0.000000,,2013-02-14 10:52:00,
2013-02-14 06:02:00,24.0,21.0,-100.00,SSE,147,0.0,0.0,88,0.00,,,0.02,0.000000,,2013-02-14 11:02:00,
2013-02-14 06:11:00,24.0,21.0,-100.00,SSE,147,0.0,0.0,88,0.00,,,0.02,0.000000,,2013-02-14 11:11:00,
2013-02-14 06:22:00,24.0,21.0,-100.00,SSE,147,0.0,0.0,88,0.00,,,0.02,0.000000,,2013-02-14 11:22:00,
2013-02-14 06:52:00,23.0,21.0,-100.00,SSE,152,0.0,0.0,90,0.00,,,0.02,0.000000,,2013-02-14 11:52:00,
2013-02-14 07:02:00,23.0,21.0,-100.00,SSE,152,0.0,0.0,90,0.00,,,0.02,0.000000,,2013-02-14 12:02:00,
2013-02-14 07:12:00,23.0,21.0,-100.00,SSE,152,0.0,0.0,90,0.00,,,0.02,0.000000,,2013-02-14 12:12:00,
2013-02-14 07:22:00,23.0,21.0,-100.00,SSE,152,0.0,0.0,90,0.00,,,0.02,0.000000,,2013-02-14 12:22:00,
2013-02-14 07:53:00,23.0,21.0,-100.00,ESE,122,0.0,0.0,90,0.00,,,0.02,6.000000,,2013-02-14 12:53:00,
2013-02-14 08:02:00,23.0,21.0,-100.00,ESE,122,0.0,0.0,90,0.00,,,0.02,6.000000,,2013-02-14 13:02:00,
2013-02-14 08:11:00,23.0,21.0,-100.00,ESE,122,0.0,0.0,90,0.00,,,0.02,6.000000,,2013-02-14 13:11:00,
2013-02-14 08:21:00,23.0,21.0,-100.00,ESE,122,0.0,0.0,90,0.00,,,0.02,6.000000,,2013-02-14 13:21:00,
2013-02-14 08:52:00,27.0,23.0,-100.00,NNW,328,0.0,0.0,83,0.00,,,0.02,56.000000,,2013-02-14 13:52:00,
2013-02-14 09:01:00,27.0,23.0,-100.00,NNW,328,0.0,0.0,83,0.00,,,0.02,56.000000,,2013-02-14 14:01:00,
2013-02-14 09:11:00,27.0,23.0,-100.00,NNW,328,0.0,0.0,83,0.00,,,0.02,56.000000,,2013-02-14 14:11:00,
2013-02-14 09:21:00,27.0,23.0,-100.00,NNW,328,0.0,0.0,83,0.00,,,0.02,56.000000,,2013-02-14 14:21:00,
2013-02-14 09:52:00,31.0,23.0,-100.00,WSW,256,3.0,5.0,72,0.01,,,0.03,158.000000,,2013-02-14 14:52:00,
2013-02-14 10:02:00,31.0,23.0,-100.00,WSW,256,3.0,5.0,72,0.01,,,0.03,158.000000,,2013-02-14 15:02:00,
2013-02-14 10:11:00,31.0,23.0,-100.00,WSW,256,3.0,5.0,72,0.01,,,0.03,158.000000,,2013-02-14 15:11:00,
2013-02-14 10:21:00,31.0,23.0,-100.00,WSW,256,3.0,5.0,72,0.01,,,0.03,158.000000,,2013-02-14 15:21:00,
2013-02-14 10:52:00,32.0,20.0,-100.00,West,272,4.0,8.0,61,0.00,,,0.03,221.000000,,2013-02-14 15:52:00,
2013-02-14 11:02:00,32.0,20.0,-100.00,West,272,4.0,8.0,61,0.00,,,0.03,221.000000,,2013-02-14 16:02:00,
2013-02-14 11:11:00,32.0,20.0,-100.00,West,272,4.0,8.0,61,0.00,,,0.03,221.000000,,2013-02-14 16:11:00,
2013-02-14 11:21:00,32.0,20.0,-100.00,West,272,4.0,8.0,61,0.00,,,0.03,221.000000,,2013-02-14 16:21:00,
2013-02-14 11:52:00,33.0,21.0,-100.00,West,276,4.0,9.0,60,0.00,,,0.02,272.000000,,2013-02-14 16:52:00,
2013-02-14 12:01:00,33.0,21.0,-100.00,West,276,4.0,9.0,60,0.00,,,0.02,272.000000,,2013-02-14 17:01:00,
2013-02-14 12:11:00,33.0,21.0,-100.00,West,276,4.0,9.0,60,0.00,,,0.02,272.000000,,2013-02-14 17:11:00,
2013-02-14 12:21:00,33.0,21.0,-100.00,West,276,4.0,9.0,60,0.00,,,0.02,272.000000,,2013-02-14 17:21:00,
2013-02-14 12:52:00,30.0,17.0,-100.00,NW,305,4.0,10.0,59,0.00,,,0.01,116.000000,,2013-02-14 17:52:00,
2013-02-14 13:02:00,30.0,17.0,-100.00,NW,305,4.0,10.0,59,0.00,,,0.01,116.000000,,2013-02-14 18:02:00,
2013-02-14 13:11:00,30.0,17.0,-100.00,NW,305,4.0,10.0,59,0.00,,,0.01,116.000000,,2013-02-14 18:11:00,
2013-02-14 13:23:00,30.0,17.0,-100.00,NW,305,4.0,10.0,59,0.00,,,0.01,116.000000,,2013-02-14 18:23:00,
2013-02-14 13:52:00,34.0,20.0,-100.00,West,265,4.0,9.0,55,0.00,,,0.01,204.000000,,2013-02-14 18:52:00,
2013-02-14 14:02:00,34.0,20.0,-100.00,West,265,4.0,9.0,55,0.00,,,0.01,204.000000,,2013-02-14 19:02:00,
2013-02-14 14:11:00,34.0,20.0,-100.00,West,265,4.0,9.0,55,0.00,,,0.01,204.000000,,2013-02-14 19:11:00,
2013-02-14 14:22:00,34.0,20.0,-100.00,West,265,4.0,9.0,55,0.00,,,0.01,204.000000,,2013-02-14 19:22:00,
2013-02-14 14:52:00,32.0,18.0,-100.00,WNW,282,4.0,10.0,56,0.00,,,0.01,237.000000,,2013-02-14 19:52:00,
2013-02-14 15:01:00,32.0,18.0,-100.00,WNW,282,4.0,10.0,56,0.00,,,0.01,237.000000,,2013-02-14 20:01:00,
2013-02-14 15:11:00,32.0,18.0,-100.00,WNW,282,4.0,10.0,56,0.00,,,0.01,237.000000,,2013-02-14 20:11:00,
2013-02-14 15:21:00,32.0,18.0,-100.00,WNW,282,4.0,10.0,56,0.00,,,0.01,237.000000,,2013-02-14 20:21:00,
2013-02-14 15:52:00,31.0,17.0,-100.00,WNW,287,4.0,7.0,55,0.00,,,0.01,70.000000,,2013-02-14 20:52:00,
2013-02-14 16:02:00,31.0,17.0,-100.00,WNW,287,4.0,7.0,55,0.00,,,0.01,70.000000,,2013-02-14 21:02:00,
2013-02-14 16:11:00,31.0,17.0,-100.00,WNW,287,4.0,7.0,55,0.00,,,0.01,70.000000,,2013-02-14 21:11:00,
2013-02-14 16:22:00,31.0,17.0,-100.00,WNW,287,4.0,7.0,55,0.00,,,0.01,70.000000,,2013-02-14 21:22:00,
2013-02-14 16:52:00,30.0,17.0,-100.00,WNW,290,2.0,7.0,58,0.00,,,0.01,40.000000,,2013-02-14 21:52:00,
2013-02-14 17:02:00,30.0,17.0,-100.00,WNW,290,2.0,7.0,58,0.00,,,0.01,40.000000,,2013-02-14 22:02:00,
2013-02-14 17:11:00,30.0,17.0,-100.00,WNW,290,2.0,7.0,58,0.00,,,0.01,40.000000,,2013-02-14 22:11:00,
2013-02-14 17:21:00,30.0,17.0,-100.00,WNW,290,2.0,7.0,58,0.00,,,0.01,40.000000,,2013-02-14 22:21:00,
2013-02-14 17:52:00,29.0,17.0,-100.00,WSW,251,1.0,5.0,60,0.00,,,0.01,9.000000,,2013-02-14 22:52:00,
2013-02-14 18:01:00,29.0,17.0,-100.00,WSW,251,1.0,5.0,60,0.00,,,0.01,9.000000,,2013-02-14 23:01:00,
2013-02-14 18:11:00,29.0,17.0,-100.00,WSW,251,1.0,5.0,60,0.00,,,0.01,9.000000,,2013-02-14 23:11:00,
2013-02-14 18:21:00,29.0,17.0,-100.00,WSW,251,1.0,5.0,60,0.00,,,0.01,9.000000,,2013-02-14 23:21:00,
2013-02-14 18:52:00,28.0,22.0,-100.00,ESE,118,0.0,2.0,77,0.00,,,0.01,0.000000,,2013-02-14 23:52:00,
2013-02-14 19:02:00,28.0,22.0,-100.00,ESE,118,0.0,2.0,77,0.00,,,0.01,0.000000,,2013-02-15 00:02:00,
2013-02-14 19:11:00,28.0,22.0,-100.00,ESE,118,0.0,2.0,77,0.00,,,0.01,0.000000,,2013-02-15 00:11:00,
2013-02-14 19:22:00,28.0,22.0,-100.00,ESE,118,0.0,2.0,77,0.00,,,0.01,0.000000,,2013-02-15 00:22:00,
2013-02-14 19:52:00,27.0,18.0,-100.00,SE,126,2.0,5.0,69,0.00,,,0.01,0.000000,,2013-02-15 00:52:00,
2013-02-14 20:02:00,27.0,18.0,-100.00,SE,126,2.0,5.0,69,0.00,,,0.01,0.000000,,2013-02-15 01:02:00,
2013-02-14 20:11:00,27.0,18.0,-100.00,SE,126,2.0,5.0,69,0.00,,,0.01,0.000000,,2013-02-15 01:11:00,
2013-02-14 20:21:00,27.0,18.0,-100.00,SE,126,2.0,5.0,69,0.00,,,0.01,0.000000,,2013-02-15 01:21:00,
2013-02-14 20:52:00,25.0,18.0,-100.00,ESE,110,3.0,4.0,75,0.00,,,0.01,0.000000,,2013-02-15 01:52:00,
2013-02-14 21:01:00,25.0,18.0,-100.00,ESE,110,3.0,4.0,75,0.00,,,0.01,0.000000,,2013-02-15 02:01:00,
2013-02-14 21:11:00,25.0,18.0,-100.00,ESE,110,3.0,4.0,75,0.00,,,0.01,0.000000,,2013-02-15 02:11:00,
2013-02-14 21:21:00,25.0,18.0,-100.00,ESE,110,3.0,4.0,75,0.00,,,0.01,0.000000,,2013-02-15 02:21:00,
2013-02-14 21:52:00,23.0,18.0,-100.00,ESE,107,3.0,4.0,81,0.00,,,0.01,0.000000,,2013-02-15 02:52:00,
2013-02-14 22:02:00,23.0,18.0,-100.00,ESE,107,3.0,4.0,81,0.00,,,0.01,0.000000,,2013-02-15 03:02:00,
2013-02-14 22:11:00,23.0,18.0,-100.00,ESE,107,3.0,4.0,81,0.00,,,0.01,0.000000,,2013-02-15 03:11:00,
2013-02-14 22:22:00,23.0,18.0,-100.00,ESE,107,3.0,4.0,81,0.00,,,0.01,0.000000,,2013-02-15 03:22:00,
2013-02-14 22:52:00,24.0,16.0,-100.00,WSW,238,1.0,3.0,72,0.00,,,0.01,0.000000,,2013-02-15 03:52:00,
2013-02-14 23:02:00,24.0,16.0,-100.00,WSW,238,1.0,3.0,72,0.00,,,0.01,0.000000,,2013-02-15 04:02:00,
2013-02-14 23:11:00,24.0,16.0,-100.00,WSW,238,1.0,3.0,72,0.00,,,0.01,0.000000,,2013-02-15 04:11:00,
2013-02-14 23:21:00,24.0,16.0,-100.00,WSW,238,1.0,3.0,72,0.00,,,0.01,0.000000,,2013-02-15 04:21:00,
2013-02-14 23:52:00,25.0,16.0,-100.00,SE,126,2.0,6.0,69,0.00,,,0.01,0.000000,,2013-02-15 04:52:00,